SCP
0 0 0 0 0 0 0 0 0 0 0 0 0 0 0 0 0 0 0 0 0 0 0 0 0 0 0 0 0 0 0 0 0 0 0 0 0 0 0 0 0 0 0 0
0 0 0 0 0 0 0 0 0 0 0 0 0 0 0 0 0 0 0 0 0 0 0 0 0 0 0 0 0 0 0 0 0 0 0 0 0 0 0 0 0 0 0 0
0 0 0 0 0 0 0 0 0 0 0 0 0 0 0 0 0 0 0 0 0 0 0 0 0 0 0 0 0 0 0 0 0 0 0 0 0 0 0 0 0 0 0 0
0 0 0 0 0 0 0 0 0 0 0 0 0 0 0 0 0 0 0 0 0 0 0 0 0 0 0 0 0 0 0 0 0 0 0 0 0 0 0 0 0 0 0 0
0 0 0 0 0 0 0 0 0 0 0 0 0 0 0 0 0 0 0 0 0 0 0 0 0 0 0 0 0 0 0 0 0 0 0 0 0 0 0 0 0 0 0 0
0 0 0 0 0 0 0 0 0 0 0 0 0 0 0 0 0 0 0 0 0 0 0 0 0 0 0 0 0 0 0 0 0 0 0 0 0 0 0 0 0 0 0 0
0 0 0 0 0 0 0 0 0 0 0 0 0 0 0 0 0 0 0 0 0 0 0 0 0 0 0 0 0 0 0 0 0 0 0 0 0 0 0 0 0 0 0 0
0 0 0 0 0 0 0 0 0 0 0 0 0 0 0 0 0 0 0 0 0 0 0 0 0 0 0 0 0 0 0 0 0 0 0 0 0 0 0 0 0 0 0 0
0 0 0 0 0 0 0 0 0 0 0 0 0 0 0 0 0 0 0 0 0 0 0 0 0 0 0 0 0 0 0 0 0 0 0 0 0 0 0 0 0 0 0 0
0 0 0 0 0 0 0 0 0 0 0 0 0 0 0 0 0 0 0 0 0 0 0 0 0 0 0 0 0 0 0 0 0 0 0 0 0 0 0 0 0 0 0 0
0 0 0 0 0 0 0 0 0 0 0 0 0 0 0 0 0 0 0 0 0 0 0 0 0 0 0 0 0 0 0 0 0 0 0 0 0 0 0 0 0 0 0 0
0 0 0 0 0 0 0 0 0 0 0 0 0 0 0 0 0 0 0 0 0 0 0 0 0 0 0 0 0 0 0 0 0 0 0 0 0 0 0 0 0 0 0 0
0 0 0 0 0 0 0 0 0 0 0 0 0 0 0 0 0 0 0 0 0 0 0 0 0 0 0 0 0 0 0 0 0 0 0 0 0 0 0 0 0 0 0 0
0 0 0 0 0 0 0 0 0 0 0 0 0 0 0 0 0 0 0 0 0 0 0 0 0 0 0 0 0 0 0 0 0 0 0 0 0 0 0 0 0 0 0 0
0 0 0 0 0 0 0 0 0 0 0 0 0 0 0 0 0 0 0 0 0 0 0 0 0 0 0 0 0 0 0 0 0 0 0 0 0 0 0 0 0 0 0 0
0 0 0 0 0 0 0 0 0 0 0 0 0 0 0 0 0 0 0 0 0 0 0 0 0 0 0 0 0 0 0 0 0 0 0 0 0 0 0 0 0 0 0 0
0 0 0 0 0 0 0 0 0 0 0 0 0 0 0 0 0 0 0 0 0 0 0 0 0 0 0 0 0 0 0 0 0 0 0 0 0 0 0 0 0 0 0 0
0 0 0 0 0 0 0 0 0 0 0 0 0 0 0 0 0 0 0 0 0 0 0 0 0 0 0 0 0 0 0 0 0 0 0 0 0 0 0 0 0 0 0 0
0 0 0 0 0 0 0 0 0 0 0 0 0 0 0 0 0 0 0 0 0 0 0 0 0 0 0 0 0 0 0 0 0 0 0 0 0 0 0 0 0 0 0 0
0 0 0 0 0 0 0 0 0 0 0 0 0 0 0 0 0 0 0 0 0 0 0 0 0 0 0 0 0 0 0 0 0 0 0 0 0 0 0 0 0 0 0 0
0 0 0 0 0 0 0 0 0 0 0 0 0 0 0 0 0 0 0 0 0 0 0 0 0 0 0 0 0 0 0 0 0 0 0 0 0 0 0 0 0 0 0 0
0 0 0 0 0 0 0 0 0 0 0 0 0 0 0 0 0 0 0 0 0 0 0 0 0 0 0 0 0 0 0 0 0 0 0 0 0 0 0 0 0 0 0 0
0 0 0 0 0 0 0 0 0 0 0 0 0 0 0 0 0 0 0 0 0 0 0 0 0 0 0 0 0 0 0 0 0 0 0 0 0 0 0 0 0 0 0 0
0 0 0 0 0 0 0 0 0 0 0 0 0 0 0 0 0 0 0 0 0 0 0 0 0 0 0 0 0 0 0 0 0 0 0 0 0 0 0 0 0 0 0 0
0 0 0 0 0 0 0 0 0 0 0 0 0 0 0 0 0 0 0 0 0 0 0 0 0 0 0 0 0 0 0 0 0 0 0 0 0 0 0 0 0 0 0 0
0 0 0 0 0 0 0 0 0 0 0 0 0 0 0 0 0 0 0 0 0 0 0 0 0 0 0 0 0 0 0 0 0 0 0 0 0 0 0 0 0 0 0 0
Wind_Speed
6 6 10 11 8 4 7 7 6 5 2 4 7 9 10 6 5 7 8 8 10 14 11 7 8 8 8 9 11 12 12 11 10 8 8 7 7 6 5 5 7 7 7 7
5 12 10 7 5 3 5 5 4 2 0 3 4 9 10 8 7 9 10 11 12 11 8 8 8 9 11 12 12 12 13 12 12 10 8 5 4 4 5 5 6 7 8 7
12 6 10 8 7 7 5 7 6 3 1 1 2 8 8 8 6 7 8 9 9 12 12 10 9 10 11 12 14 13 14 13 12 10 6 4 3 3 4 5 6 7 8 8
7 5 11 11 10 9 7 5 6 5 2 3 2 6 9 7 7 9 10 10 11 12 11 9 9 9 12 13 11 11 11 11 11 11 9 10 9 9 8 5 5 6 7 8
10 9 13 14 11 10 6 5 5 4 3 2 2 4 11 4 8 10 11 12 13 12 11 11 10 11 10 9 9 9 10 11 11 11 12 12 11 8 4 5 7 7 6 7
5 5 9 9 7 9 7 7 6 4 3 6 7 6 11 7 9 8 9 10 11 10 9 9 7 6 6 6 7 7 10 11 11 12 13 13 13 10 8 8 7 6 5 5
5 3 3 5 9 6 7 8 3 1 3 8 3 7 13 10 10 9 9 9 8 6 6 7 7 7 7 7 8 8 9 10 10 12 12 13 13 11 11 10 9 7 5 5
12 9 10 8 10 11 11 11 9 8 7 5 4 10 12 9 6 6 7 7 5 6 6 6 6 6 6 6 6 7 8 9 9 10 11 10 10 8 8 8 7 7 6 5
14 9 5 7 5 14 11 8 6 6 2 2 7 8 12 7 7 8 8 7 8 6 5 5 4 4 4 5 5 6 7 6 7 8 8 8 8 8 7 7 6 5 5 4
10 8 6 5 5 2 9 11 6 6 7 6 6 6 7 5 8 8 8 8 7 3 3 3 3 3 3 3 3 4 5 5 5 5 5 5 6 7 6 6 6 6 6 5
6 9 5 6 10 13 8 8 7 7 6 7 5 9 9 10 8 7 8 6 4 4 4 4 3 3 3 3 3 3 4 4 4 4 4 5 4 5 5 5 6 6 6 6
5 8 6 5 2 6 7 11 11 10 7 6 4 10 5 6 6 5 6 4 3 3 3 3 3 3 3 3 3 3 3 4 4 4 4 4 4 5 5 5 5 6 6 5
9 9 8 3 2 4 5 6 9 6 6 6 7 11 4 2 4 4 5 4 3 2 2 2 3 4 4 4 4 4 4 4 4 4 4 4 4 5 5 5 5 6 6 6
9 6 10 15 11 10 8 7 9 8 8 9 12 9 5 3 3 3 3 3 2 3 3 4 4 4 4 4 4 4 4 4 4 4 4 4 4 5 5 5 6 6 6 7
8 7 5 4 5 11 9 12 13 13 14 13 14 14 12 8 5 4 3 3 3 4 5 6 6 5 5 5 5 5 4 4 5 5 5 4 4 5 6 6 6 6 6 6
7 8 6 2 3 6 7 12 17 18 15 14 10 14 10 7 4 4 5 5 6 7 7 7 6 6 7 7 6 6 5 5 5 6 5 5 5 5 6 6 7 7 7 6
8 9 8 5 3 4 10 16 18 14 11 12 18 18 6 7 8 9 9 8 9 9 7 7 8 8 7 7 7 7 6 6 6 6 6 6 6 6 6 6 7 7 6 6
12 9 6 6 6 10 14 7 12 15 15 14 12 8 11 13 11 8 7 9 9 8 7 6 6 5 5 4 5 5 6 6 6 6 6 6 7 7 6 6 6 6 6 6
9 11 7 6 8 11 9 6 11 13 14 13 15 12 8 4 1 5 6 7 8 7 5 4 4 4 4 5 6 7 7 7 7 7 7 7 8 8 8 7 7 5 6 6
5 8 8 7 9 15 12 7 7 7 13 11 13 14 10 8 7 9 4 5 4 2 1 2 2 3 4 4 6 8 8 7 7 7 7 6 7 8 8 8 7 5 6 6
8 7 10 8 8 12 6 5 11 11 13 6 10 12 11 13 11 3 3 2 1 1 1 2 4 3 3 4 6 7 6 6 5 5 6 6 6 7 7 7 6 7 7 7
13 10 11 8 8 13 5 10 14 10 3 4 5 6 8 7 3 2 2 2 2 3 3 3 4 4 3 3 5 6 5 4 5 6 7 6 6 6 6 8 7 7 8 8
9 10 9 11 10 3 8 8 5 4 5 4 4 4 6 5 4 3 3 3 3 3 4 4 4 4 4 3 3 5 4 5 7 7 7 7 6 5 6 7 8 7 6 6
3 2 5 4 4 3 3 1 1 3 3 3 3 4 5 5 4 4 3 3 3 3 4 3 4 4 3 3 3 3 5 6 7 7 7 6 7 6 5 4 5 6 6 5
5 6 5 4 2 2 1 3 3 4 5 5 5 4 4 6 5 4 4 3 3 3 3 3 4 4 3 3 4 4 4 6 7 6 6 5 5 6 5 4 3 4 3 4
2 5 7 7 7 6 5 2 3 5 4 4 5 5 4 4 5 5 4 3 3 3 3 4 4 4 3 3 3 3 3 5 6 6 5 4 4 4 4 5 4 3 4 4
Wind_Direction
150 164 199 196 185 168 164 168 198 219 231 190 229 247 257 249 226 238 236 228 228 234 237 220 208 202 197 197 198 199 198 195 188 192 196 200 205 200 198 198 197 195 194 190
142 213 199 164 171 158 167 180 205 254 258 194 249 263 260 245 229 225 226 226 229 238 242 223 210 201 203 205 205 203 203 197 195 198 194 189 182 192 196 195 199 198 196 193
182 197 157 156 169 181 190 188 192 198 17 351 307 288 261 257 232 238 232 228 228 228 233 227 213 209 205 208 207 206 204 200 198 192 176 165 165 168 187 198 201 201 200 198
191 174 158 169 185 172 211 198 172 159 149 259 211 270 273 249 253 243 238 231 231 230 228 224 213 211 210 214 208 205 201 198 194 188 188 189 198 208 205 193 193 195 200 201
199 174 169 184 187 165 181 157 149 150 167 270 243 242 275 267 253 250 239 232 230 228 221 222 216 214 214 209 201 201 196 197 193 192 197 199 208 212 190 181 189 195 199 201
170 174 180 180 158 156 128 90 70 63 91 251 221 204 271 233 221 236 238 232 229 227 222 225 223 212 211 198 194 192 194 199 194 195 199 203 207 201 189 192 194 196 197 200
165 192 197 142 127 146 144 126 119 169 218 245 201 210 249 239 226 223 237 243 236 231 223 224 220 210 206 196 194 191 193 200 195 197 202 206 207 202 202 199 198 194 196 199
167 198 195 178 161 164 178 162 167 183 207 250 212 231 251 248 257 259 263 265 265 248 229 225 222 213 206 198 190 187 193 199 195 199 204 206 204 203 206 201 195 196 195 193
173 196 170 180 160 144 161 191 159 135 132 230 245 269 295 274 266 257 254 251 248 246 232 228 223 209 201 192 189 188 189 194 196 200 200 201 201 200 199 191 188 184 178 171
143 156 172 158 114 137 160 150 135 156 168 228 263 248 243 252 241 243 241 242 249 241 225 219 205 198 194 187 179 176 180 189 190 191 194 195 195 194 188 178 179 173 164 159
127 130 141 158 177 170 141 160 164 161 176 178 238 260 224 219 220 228 243 252 253 240 224 211 196 183 174 164 164 166 168 165 169 178 178 175 175 171 168 171 171 163 154 156
133 118 143 202 234 175 161 173 162 174 203 189 201 261 251 228 249 248 259 267 262 240 220 199 185 172 170 171 170 170 167 163 166 165 161 161 156 154 157 158 154 149 146 148
141 126 115 118 195 185 194 188 183 156 137 170 193 254 272 234 256 250 251 261 261 238 208 187 184 188 191 187 180 176 172 165 154 147 146 144 146 148 148 144 138 137 136 133
135 139 168 188 193 165 183 188 178 158 188 210 221 236 260 241 244 251 240 239 230 224 214 208 210 207 201 193 185 181 177 164 153 144 144 147 148 143 136 130 127 127 129 131
143 171 180 179 157 157 175 184 183 196 204 208 224 222 231 227 231 239 231 220 226 234 224 219 216 209 201 197 192 185 176 163 154 150 151 150 136 125 122 121 119 117 115 117
153 160 149 145 160 172 188 195 196 208 213 223 231 239 230 220 217 232 233 228 238 239 231 223 218 211 206 201 194 184 178 167 157 158 156 143 134 129 127 127 123 119 115 115
153 140 149 180 124 104 233 207 199 209 212 204 226 236 201 209 218 221 224 222 229 235 232 223 217 213 210 200 188 185 175 157 154 155 151 147 143 139 136 132 128 129 126 121
156 146 137 136 135 218 237 193 191 209 223 213 223 221 201 211 218 221 214 215 228 231 228 225 217 211 201 180 170 159 151 154 156 156 156 154 149 144 138 135 135 131 126 126
160 149 138 153 194 248 267 209 185 195 237 221 225 230 217 202 214 261 229 213 220 222 221 220 208 190 169 166 160 149 153 156 159 167 168 164 157 150 148 147 143 134 127 121
138 142 144 158 187 226 237 195 169 152 251 226 211 221 205 162 214 244 210 202 210 209 205 186 152 141 147 150 146 151 159 164 177 178 168 158 155 154 153 148 138 126 125 123
153 160 176 176 207 247 233 165 137 178 236 210 199 207 186 191 215 206 131 132 144 112 77 100 113 120 134 138 144 154 160 177 172 146 138 141 145 145 142 133 130 130 127 123
169 172 187 175 204 236 183 149 177 204 169 160 178 192 185 192 174 131 117 113 93 87 75 86 98 91 87 118 139 145 159 146 129 130 132 134 134 133 134 132 130 131 132 130
184 182 175 189 211 192 169 182 194 148 153 169 165 166 157 156 164 148 129 114 94 89 80 77 96 91 72 72 120 140 133 127 129 131 133 132 129 128 136 140 141 138 141 143
232 136 139 183 227 189 184 161 127 134 145 137 128 127 130 134 138 129 121 111 98 87 85 86 96 95 79 64 78 112 124 130 134 137 137 138 138 136 134 138 145 150 157 156
175 155 152 186 176 107 221 204 167 127 107 100 89 90 112 122 123 125 119 107 98 90 83 89 98 99 91 82 82 96 122 133 134 135 136 138 138 140 137 131 140 152 156 169
167 169 173 196 186 171 185 176 137 119 114 116 110 85 69 95 114 109 105 98 96 94 87 86 82 88 89 86 84 87 112 135 140 140 144 145 142 141 141 134 113 116 134 151